Time,TemperatureF,DewpointF,PressureIn,WindDirection,WindDirectionDegrees,WindSpeedMPH,WindSpeedGustMPH,Humidity,HourlyPrecipIn,Conditions,Clouds,dailyrainin,SolarRadiationWatts/m^2,SoftwareType,DateUTC
2013-08-01 00:05:00,92.8,37.8,29.32,SSW,207,6.3,8.0,14,-99.99,,,0.00,0,rob ver 1A,2013-08-01 07:05:00,
2013-08-01 00:10:00,92.6,36.5,29.32,SW,214,6.1,6.9,13,-99.99,,,0.00,0,rob ver 1A,2013-08-01 07:10:00,
2013-08-01 00:15:00,92.4,36.3,29.32,SW,226,5.0,6.4,13,-99.99,,,0.00,0,rob ver 1A,2013-08-01 07:15:00,
2013-08-01 00:21:00,92.3,36.3,29.32,SW,234,5.3,6.8,14,-99.99,,,0.00,0,rob ver 1A,2013-08-01 07:21:00,
2013-08-01 00:26:00,92.0,36.4,29.32,WSW,249,4.7,5.7,14,-99.99,,,0.00,0,rob ver 1A,2013-08-01 07:26:00,
2013-08-01 00:31:00,91.8,36.4,29.32,West,264,4.6,5.1,14,-99.99,,,0.00,0,rob ver 1A,2013-08-01 07:31:00,
2013-08-01 00:37:00,91.2,37.0,29.32,West,263,4.6,5.5,15,-99.99,,,0.00,0,rob ver 1A,2013-08-01 07:37:00,
2013-08-01 00:42:00,90.9,36.9,29.32,West,260,4.4,5.3,15,-99.99,,,0.00,0,rob ver 1A,2013-08-01 07:42:00,
2013-08-01 00:47:00,90.8,37.5,29.32,West,264,3.3,4.3,15,-99.99,,,0.00,0,rob ver 1A,2013-08-01 07:47:00,
2013-08-01 00:52:00,90.8,37.5,29.32,West,281,3.3,4.2,15,-99.99,,,0.00,0,rob ver 1A,2013-08-01 07:52:00,
2013-08-01 00:57:00,90.6,37.5,29.32,West,278,2.5,3.1,15,-99.99,,,0.00,0,rob ver 1A,2013-08-01 07:57:00,
2013-08-01 01:04:00,90.1,38.5,29.32,West,267,3.0,3.7,16,-99.99,,,0.00,0,rob ver 1A,2013-08-01 08:04:00,
2013-08-01 01:09:00,90.0,38.8,29.32,WNW,287,3.1,3.5,16,-99.99,,,0.00,0,rob ver 1A,2013-08-01 08:09:00,
2013-08-01 01:15:00,90.0,38.9,29.32,WNW,299,3.4,3.9,16,-99.99,,,0.00,0,rob ver 1A,2013-08-01 08:15:00,
2013-08-01 01:20:00,90.1,38.9,29.32,WNW,290,4.0,4.6,16,-99.99,,,0.00,0,rob ver 1A,2013-08-01 08:20:00,
2013-08-01 01:26:00,89.7,39.2,29.29,WNW,287,3.5,4.3,16,-99.99,,,0.00,0,rob ver 1A,2013-08-01 08:26:00,
2013-08-01 01:31:00,89.8,39.2,29.29,WNW,289,2.9,3.4,16,-99.99,,,0.00,0,rob ver 1A,2013-08-01 08:31:00,
2013-08-01 01:37:00,89.7,39.3,29.29,West,266,2.4,3.0,17,-99.99,,,0.00,0,rob ver 1A,2013-08-01 08:37:00,
2013-08-01 01:42:00,89.5,39.0,29.29,West,281,2.5,3.0,17,-99.99,,,0.00,0,rob ver 1A,2013-08-01 08:42:00,
2013-08-01 01:48:00,89.7,38.4,29.29,WNW,292,3.1,3.6,16,-99.99,,,0.00,0,rob ver 1A,2013-08-01 08:48:00,
2013-08-01 01:58:00,90.5,36.8,29.29,WNW,285,3.6,4.0,15,-99.99,,,0.00,0,rob ver 1A,2013-08-01 08:58:00,
2013-08-01 02:03:00,91.0,36.5,29.29,WSW,251,4.4,5.9,14,-99.99,,,0.00,0,rob ver 1A,2013-08-01 09:03:00,
2013-08-01 02:09:00,91.3,36.4,29.29,SW,232,4.2,5.1,14,-99.99,,,0.00,0,rob ver 1A,2013-08-01 09:09:00,
2013-08-01 02:15:00,91.0,36.5,29.29,WSW,245,3.4,4.0,14,-99.99,,,0.00,0,rob ver 1A,2013-08-01 09:15:00,
2013-08-01 02:20:00,90.5,36.6,29.29,WSW,254,3.9,4.8,15,-99.99,,,0.00,0,rob ver 1A,2013-08-01 09:20:00,
2013-08-01 02:25:00,90.1,36.7,29.29,WSW,248,3.5,4.4,15,-99.99,,,0.00,0,rob ver 1A,2013-08-01 09:25:00,
2013-08-01 02:32:00,89.4,38.0,29.29,WSW,257,3.5,4.8,16,-99.99,,,0.00,0,rob ver 1A,2013-08-01 09:32:00,
2013-08-01 02:38:00,89.3,37.8,29.29,WSW,254,4.4,5.3,16,-99.99,,,0.00,0,rob ver 1A,2013-08-01 09:38:00,
2013-08-01 02:43:00,88.9,38.4,29.29,WSW,246,1.7,2.5,16,-99.99,,,0.00,0,rob ver 1A,2013-08-01 09:43:00,
2013-08-01 02:49:00,88.6,38.4,29.29,North,11,2.7,4.4,17,-99.99,,,0.00,0,rob ver 1A,2013-08-01 09:49:00,
2013-08-01 02:54:00,89.2,37.8,29.29,NE,35,1.6,2.9,16,-99.99,,,0.00,0,rob ver 1A,2013-08-01 09:54:00,
2013-08-01 03:02:00,90.0,36.7,29.29,West,260,2.4,3.3,15,-99.99,,,0.00,0,rob ver 1A,2013-08-01 10:02:00,
2013-08-01 03:07:00,89.8,37.6,29.29,NE,36,1.5,2.3,15,-99.99,,,0.00,0,rob ver 1A,2013-08-01 10:07:00,
2013-08-01 03:12:00,88.7,38.2,29.29,NNE,33,2.6,3.3,16,-99.99,,,0.00,0,rob ver 1A,2013-08-01 10:12:00,
2013-08-01 03:18:00,89.2,37.9,29.29,NE,41,2.5,2.9,16,-99.99,,,0.00,0,rob ver 1A,2013-08-01 10:18:00,
2013-08-01 03:23:00,88.8,38.2,29.29,NNE,17,1.3,1.7,16,-99.99,,,0.00,0,rob ver 1A,2013-08-01 10:23:00,
2013-08-01 03:29:00,88.5,38.4,29.29,North,10,0.8,1.0,17,-99.99,,,0.00,0,rob ver 1A,2013-08-01 10:29:00,
2013-08-01 03:34:00,88.3,38.5,29.29,NE,38,2.2,2.5,17,-99.99,,,0.00,0,rob ver 1A,2013-08-01 10:34:00,
2013-08-01 03:40:00,88.3,38.1,29.29,NNE,19,1.6,1.6,17,-99.99,,,0.00,0,rob ver 1A,2013-08-01 10:40:00,
2013-08-01 03:45:00,88.2,38.3,29.29,North,350,1.9,1.9,17,-99.99,,,0.00,0,rob ver 1A,2013-08-01 10:45:00,
2013-08-01 03:51:00,87.4,39.5,29.29,North,351,2.8,3.1,18,-99.99,,,0.00,0,rob ver 1A,2013-08-01 10:51:00,
2013-08-01 03:58:00,86.8,39.5,29.29,North,357,3.2,3.3,18,-99.99,,,0.00,0,rob ver 1A,2013-08-01 10:58:00,
2013-08-01 04:03:00,87.3,38.4,29.29,North,6,3.3,3.4,17,-99.99,,,0.00,0,rob ver 1A,2013-08-01 11:03:00,
2013-08-01 04:10:00,88.1,38.2,29.29,NNE,26,4.4,4.7,17,-99.99,,,0.00,0,rob ver 1A,2013-08-01 11:10:00,
2013-08-01 04:15:00,86.8,39.4,29.29,NE,50,4.0,5.7,18,-99.99,,,0.00,0,rob ver 1A,2013-08-01 11:15:00,
2013-08-01 04:21:00,86.1,39.6,29.29,NE,39,6.4,7.6,19,-99.99,,,0.00,0,rob ver 1A,2013-08-01 11:21:00,
2013-08-01 04:27:00,86.3,40.1,29.29,NNE,31,5.6,7.0,19,-99.99,,,0.00,0,rob ver 1A,2013-08-01 11:27:00,
2013-08-01 04:32:00,86.3,40.1,29.29,NNE,19,4.7,5.2,19,-99.99,,,0.00,0,rob ver 1A,2013-08-01 11:32:00,
2013-08-01 04:38:00,86.4,40.0,29.29,NNE,14,4.0,4.5,19,-99.99,,,0.00,0,rob ver 1A,2013-08-01 11:38:00,
2013-08-01 04:43:00,86.4,39.8,29.29,North,4,4.0,4.3,19,-99.99,,,0.00,0,rob ver 1A,2013-08-01 11:43:00,
2013-08-01 04:49:00,86.1,40.2,29.29,NE,39,3.7,4.1,19,-99.99,,,0.00,0,rob ver 1A,2013-08-01 11:49:00,
2013-08-01 04:54:00,85.6,41.0,29.29,ENE,65,4.3,5.7,21,-99.99,,,0.00,0,rob ver 1A,2013-08-01 11:54:00,
2013-08-01 04:59:00,84.9,41.2,29.29,NE,38,5.1,5.8,21,-99.99,,,0.00,0,rob ver 1A,2013-08-01 11:59:00,
2013-08-01 05:04:00,85.0,41.1,29.29,NNE,29,4.9,5.4,21,-99.99,,,0.00,0,rob ver 1A,2013-08-01 12:04:00,
2013-08-01 05:12:00,85.7,40.6,29.29,NNE,25,4.4,4.7,20,-99.99,,,0.00,0,rob ver 1A,2013-08-01 12:12:00,
2013-08-01 05:17:00,85.6,40.6,29.29,NE,43,2.5,3.1,20,-99.99,,,0.00,0,rob ver 1A,2013-08-01 12:17:00,
2013-08-01 05:22:00,85.6,40.5,29.29,NNE,32,2.8,3.2,20,-99.99,,,0.00,0,rob ver 1A,2013-08-01 12:22:00,
2013-08-01 05:27:00,86.2,40.7,29.29,NNE,14,3.8,4.9,20,-99.99,,,0.00,0,rob ver 1A,2013-08-01 12:27:00,
2013-08-01 05:32:00,85.8,41.1,29.29,NNW,342,4.7,5.3,20,-99.99,,,0.00,.33,rob ver 1A,2013-08-01 12:32:00,
2013-08-01 05:38:00,85.2,42.1,29.32,North,353,4.4,5.3,22,-99.99,,,0.00,1.648,rob ver 1A,2013-08-01 12:38:00,
2013-08-01 05:45:00,86.0,43.0,29.32,North,10,5.9,7.7,22,-99.99,,,0.00,5.44,rob ver 1A,2013-08-01 12:45:00,
2013-08-01 05:51:00,86.1,43.4,29.32,NNE,21,6.0,7.6,22,-99.99,,,0.00,13.85,rob ver 1A,2013-08-01 12:51:00,
2013-08-01 05:56:00,85.9,44.2,29.32,NE,44,4.3,5.5,23,-99.99,,,0.00,23.57,rob ver 1A,2013-08-01 12:56:00,
2013-08-01 06:01:00,85.1,44.1,29.32,East,91,4.6,5.1,23,-99.99,,,0.00,44.67,rob ver 1A,2013-08-01 13:01:00,
2013-08-01 06:07:00,85.0,44.3,29.32,East,79,4.6,5.2,24,-99.99,,,0.00,65.28,rob ver 1A,2013-08-01 13:07:00,
2013-08-01 06:12:00,85.2,44.4,29.32,East,87,3.8,4.2,24,-99.99,,,0.00,87.7,rob ver 1A,2013-08-01 13:12:00,
2013-08-01 06:18:00,85.0,44.5,29.32,East,82,3.6,4.0,24,-99.99,,,0.00,97.9,rob ver 1A,2013-08-01 13:18:00,
2013-08-01 06:23:00,85.0,44.9,29.32,ENE,61,3.1,3.7,24,-99.99,,,0.00,101.5,rob ver 1A,2013-08-01 13:23:00,
2013-08-01 06:28:00,84.8,45.1,29.32,NE,50,3.0,3.5,25,-99.99,,,0.00,109.5,rob ver 1A,2013-08-01 13:28:00,
2013-08-01 06:34:00,84.8,45.0,29.32,SSE,162,2.3,2.7,25,-99.99,,,0.00,152.3,rob ver 1A,2013-08-01 13:34:00,
2013-08-01 06:41:00,85.2,45.0,29.32,ESE,118,1.3,1.5,24,-99.99,,,0.00,222.9,rob ver 1A,2013-08-01 13:41:00,
2013-08-01 06:46:00,85.7,44.7,29.32,SSE,166,1.0,1.0,23,-99.99,,,0.00,400.6,rob ver 1A,2013-08-01 13:46:00,
2013-08-01 06:51:00,87.2,44.6,29.32,NNW,338,0.8,0.9,22,-99.99,,,0.00,766,rob ver 1A,2013-08-01 13:51:00,
2013-08-01 06:57:00,88.6,45.9,29.32,NNE,21,0.1,0.2,22,-99.99,,,0.00,908,rob ver 1A,2013-08-01 13:57:00,
2013-08-01 07:03:00,91.0,45.7,29.32,West,271,0.5,1.1,21,-99.99,,,0.00,1083,rob ver 1A,2013-08-01 14:03:00,
2013-08-01 07:09:00,90.0,45.6,29.32,West,276,1.3,1.5,21,-99.99,,,0.00,1217,rob ver 1A,2013-08-01 14:09:00,
2013-08-01 07:16:00,90.2,45.9,29.32,WNW,291,0.3,0.7,21,-99.99,,,0.00,1360,rob ver 1A,2013-08-01 14:16:00,
2013-08-01 07:22:00,90.6,46.1,29.32,NW,326,0.7,1.5,21,-99.99,,,0.00,1521,rob ver 1A,2013-08-01 14:22:00,
2013-08-01 07:28:00,91.4,46.1,29.32,North,3,1.8,2.2,21,-99.99,,,0.00,1639,rob ver 1A,2013-08-01 14:28:00,
2013-08-01 07:33:00,92.1,46.4,29.32,NNE,23,1.6,2.3,20,-99.99,,,0.00,1759,rob ver 1A,2013-08-01 14:33:00,
2013-08-01 07:38:00,93.9,46.4,29.32,WSW,245,1.1,1.9,19,-99.99,,,0.00,1926,rob ver 1A,2013-08-01 14:38:00,
2013-08-01 07:44:00,94.4,46.5,29.32,SW,222,0.6,1.3,19,-99.99,,,0.00,2037,rob ver 1A,2013-08-01 14:44:00,
2013-08-01 07:51:00,94.6,45.9,29.32,NNE,24,1.0,1.7,18,-99.99,,,0.00,2212,rob ver 1A,2013-08-01 14:51:00,
2013-08-01 07:56:00,96.3,46.1,29.32,SSE,167,0.8,1.3,18,-99.99,,,0.00,2302,rob ver 1A,2013-08-01 14:56:00,
2013-08-01 08:01:00,94.9,46.2,29.32,SSE,168,1.4,2.2,18,-99.99,,,0.00,2468,rob ver 1A,2013-08-01 15:01:00,
2013-08-01 08:09:00,94.6,45.5,29.32,SSE,156,1.7,2.2,18,-99.99,,,0.00,2631,rob ver 1A,2013-08-01 15:09:00,
2013-08-01 08:15:00,94.6,45.0,29.32,SE,140,3.3,4.1,18,-99.99,,,0.00,0,rob ver 1A,2013-08-01 15:15:00,
2013-08-01 08:21:00,94.9,44.7,29.32,South,169,3.5,4.6,17,-99.99,,,0.00,0,rob ver 1A,2013-08-01 15:21:00,
2013-08-01 08:26:00,95.4,44.9,29.32,SSE,162,2.6,3.2,17,-99.99,,,0.00,0,rob ver 1A,2013-08-01 15:26:00,
2013-08-01 08:32:00,95.6,43.6,29.32,SE,127,5.2,7.2,16,-99.99,,,0.00,0,rob ver 1A,2013-08-01 15:32:00,
2013-08-01 08:38:00,95.9,40.9,29.32,ENE,62,6.0,7.2,15,-99.99,,,0.00,0,rob ver 1A,2013-08-01 15:38:00,
2013-08-01 08:43:00,96.1,41.6,29.32,ENE,74,4.9,7.0,15,-99.99,,,0.00,0,rob ver 1A,2013-08-01 15:43:00,
2013-08-01 08:49:00,96.7,41.2,29.32,ENE,77,5.1,8.9,14,-99.99,,,0.00,0,rob ver 1A,2013-08-01 15:49:00,
2013-08-01 08:57:00,96.7,40.4,29.32,East,83,5.0,7.5,14,-99.99,,,0.00,2583,rob ver 1A,2013-08-01 15:57:00,
2013-08-01 09:02:00,97.1,41.0,29.32,SSE,159,4.5,7.1,14,-99.99,,,0.00,0,rob ver 1A,2013-08-01 16:02:00,
2013-08-01 09:07:00,97.6,40.9,29.32,SSE,158,6.8,8.6,14,-99.99,,,0.00,0,rob ver 1A,2013-08-01 16:07:00,
2013-08-01 09:12:00,97.4,41.0,29.32,South,169,4.6,6.4,14,-99.99,,,0.00,0,rob ver 1A,2013-08-01 16:12:00,
2013-08-01 09:18:00,97.8,41.0,29.32,SE,136,7.2,9.1,14,-99.99,,,0.00,0,rob ver 1A,2013-08-01 16:18:00,
2013-08-01 09:24:00,97.6,41.0,29.32,SSE,155,7.9,10.3,14,-99.99,,,0.00,0,rob ver 1A,2013-08-01 16:24:00,
2013-08-01 09:29:00,98.1,40.9,29.32,South,175,5.4,8.3,13,-99.99,,,0.00,0,rob ver 1A,2013-08-01 16:29:00,
2013-08-01 09:34:00,98.3,40.2,29.32,SE,140,7.8,9.8,13,-99.99,,,0.00,0,rob ver 1A,2013-08-01 16:34:00,
2013-08-01 09:40:00,98.3,39.8,29.32,SSE,151,7.6,10.5,13,-99.99,,,0.00,0,rob ver 1A,2013-08-01 16:40:00,
2013-08-01 09:46:00,98.4,39.1,29.32,SE,141,8.1,9.4,12,-99.99,,,0.00,0,rob ver 1A,2013-08-01 16:46:00,
2013-08-01 09:52:00,99.5,38.4,29.32,SE,145,8.6,11.6,12,-99.99,,,0.00,0,rob ver 1A,2013-08-01 16:52:00,
2013-08-01 10:01:00,99.1,38.1,29.32,SSE,163,6.0,7.7,12,-99.99,,,0.00,0,rob ver 1A,2013-08-01 17:01:00,
2013-08-01 10:07:00,99.4,38.2,29.32,SE,142,6.7,8.6,12,-99.99,,,0.00,0,rob ver 1A,2013-08-01 17:07:00,
2013-08-01 10:13:00,99.7,37.7,29.32,SE,135,9.1,10.9,11,-99.99,,,0.00,0,rob ver 1A,2013-08-01 17:13:00,
2013-08-01 10:18:00,100.0,38.4,29.32,SE,146,8.7,10.9,11,-99.99,,,0.00,0,rob ver 1A,2013-08-01 17:18:00,
2013-08-01 10:21:00,94.5,43.4,29.32,South,179,6.3,9.6,17,-99.99,,,0.00,0,rob ver 1B,2013-08-01 17:21:00,
2013-08-01 10:22:00,94.7,43.4,29.32,South,174,6.6,9.1,17,-99.99,,,0.00,0,rob ver 1B,2013-08-01 17:22:00,
2013-08-01 10:23:00,94.9,43.5,29.32,SSE,168,7.7,9.8,17,-99.99,,,0.00,0,rob ver 1B,2013-08-01 17:23:00,
2013-08-01 10:24:00,100.6,36.0,29.32,SE,140,9.4,14.9,10,-99.99,,,0.00,0,rob ver 1A,2013-08-01 17:24:00,
2013-08-01 10:25:00,94.8,43.3,29.32,SSE,160,9.4,11.0,17,-99.99,,,0.00,0,rob ver 1B,2013-08-01 17:25:00,
2013-08-01 10:26:00,94.7,44.0,29.32,SSE,151,9.4,10.8,17,-99.99,,,0.00,0,rob ver 1B,2013-08-01 17:26:00,
2013-08-01 10:27:00,94.6,43.9,29.32,SSE,150,7.1,10.5,17,-99.99,,,0.00,0,rob ver 1B,2013-08-01 17:27:00,
2013-08-01 10:28:00,94.8,43.4,29.35,SE,134,5.1,7.3,17,-99.99,,,0.00,0,rob ver 1B,2013-08-01 17:28:00,
2013-08-01 10:29:00,94.7,43.7,29.32,SE,131,4.5,5.8,17,-99.99,,,0.00,0,rob ver 1B,2013-08-01 17:29:00,
2013-08-01 10:30:00,100.9,33.8,29.32,SSE,157,10.8,13.0,9,-99.99,,,0.00,0,rob ver 1A,2013-08-01 17:30:00,
2013-08-01 10:31:00,95.2,42.5,29.32,SSE,150,7.2,9.8,15,-99.99,,,0.00,0,rob ver 1B,2013-08-01 17:31:00,
2013-08-01 10:32:00,95.4,41.5,29.32,SSE,158,5.2,7.9,15,-99.99,,,0.00,0,rob ver 1B,2013-08-01 17:32:00,
2013-08-01 10:33:00,95.7,41.0,29.32,SSE,157,2.1,3.8,15,-99.99,,,0.00,0,rob ver 1B,2013-08-01 17:33:00,
2013-08-01 10:34:00,96.2,40.8,29.32,SSW,195,3.5,4.4,14,-99.99,,,0.00,0,rob ver 1B,2013-08-01 17:34:00,
2013-08-01 10:35:00,101.1,35.1,29.32,SSE,150,11.9,15.5,10,-99.99,,,0.00,0,rob ver 1A,2013-08-01 17:35:00,
2013-08-01 10:36:00,96.9,40.7,29.32,South,180,7.5,10.0,14,-99.99,,,0.00,0,rob ver 1B,2013-08-01 17:36:00,
2013-08-01 10:37:00,96.7,40.1,29.32,SSE,158,7.8,9.6,13,-99.99,,,0.00,0,rob ver 1B,2013-08-01 17:37:00,
2013-08-01 10:38:00,96.3,39.5,29.32,SSE,150,6.8,8.6,13,-99.99,,,0.00,0,rob ver 1B,2013-08-01 17:38:00,
2013-08-01 10:39:00,96.3,39.7,29.32,SSW,200,6.2,7.9,14,-99.99,,,0.00,0,rob ver 1B,2013-08-01 17:39:00,
2013-08-01 10:40:00,96.4,40.5,29.32,South,169,5.4,8.9,14,-99.99,,,0.00,0,rob ver 1B,2013-08-01 17:40:00,
2013-08-01 10:41:00,100.5,35.9,29.32,SSE,147,10.0,13.2,10,-99.99,,,0.00,0,rob ver 1A,2013-08-01 17:41:00,
2013-08-01 10:42:00,96.3,39.9,29.32,SSE,164,5.6,9.8,14,-99.99,,,0.00,0,rob ver 1B,2013-08-01 17:42:00,
2013-08-01 10:43:00,96.0,40.1,29.32,SSE,151,6.4,9.6,14,-99.99,,,0.00,0,rob ver 1B,2013-08-01 17:43:00,
2013-08-01 10:44:00,95.8,40.2,29.32,SSE,150,3.2,5.0,14,-99.99,,,0.00,0,rob ver 1B,2013-08-01 17:44:00,
2013-08-01 10:45:00,95.7,39.9,29.32,ESE,105,3.2,4.6,14,-99.99,,,0.00,0,rob ver 1B,2013-08-01 17:45:00,
2013-08-01 10:46:00,100.9,36.2,29.32,SSE,155,9.3,14.0,10,-99.99,,,0.00,0,rob ver 1A,2013-08-01 17:46:00,
2013-08-01 10:47:00,95.4,39.3,29.32,ENE,78,2.5,3.2,14,-99.99,,,0.00,0,rob ver 1B,2013-08-01 17:47:00,
2013-08-01 10:48:00,95.6,40.1,29.32,ESE,116,2.6,4.2,14,-99.99,,,0.00,0,rob ver 1B,2013-08-01 17:48:00,
2013-08-01 10:49:00,95.9,40.4,29.32,ESE,114,1.0,2.0,14,-99.99,,,0.00,0,rob ver 1B,2013-08-01 17:49:00,
2013-08-01 10:50:00,96.4,39.8,29.32,South,171,2.2,4.5,13,-99.99,,,0.00,0,rob ver 1B,2013-08-01 17:50:00,
2013-08-01 10:51:00,101.0,36.1,29.32,SE,125,8.9,11.3,10,-99.99,,,0.00,0,rob ver 1A,2013-08-01 17:51:00,
2013-08-01 10:52:00,96.6,35.0,29.32,SSE,159,7.4,11.5,11,-99.99,,,0.00,0,rob ver 1B,2013-08-01 17:52:00,
2013-08-01 10:53:00,97.1,33.8,29.32,SSE,159,6.7,8.8,10,-99.99,,,0.00,0,rob ver 1B,2013-08-01 17:53:00,
2013-08-01 10:54:00,97.4,33.4,29.32,SSE,168,8.4,13.2,10,-99.99,,,0.00,0,rob ver 1B,2013-08-01 17:54:00,
2013-08-01 10:55:00,97.3,33.0,29.32,SSE,148,10.8,13.8,10,-99.99,,,0.00,0,rob ver 1B,2013-08-01 17:55:00,
2013-08-01 10:56:00,97.2,32.6,29.32,SSE,160,9.4,11.9,9,-99.99,,,0.00,0,rob ver 1B,2013-08-01 17:56:00,
2013-08-01 10:57:00,97.5,30.9,29.32,SE,124,9.4,12.8,9,-99.99,,,0.00,0,rob ver 1B,2013-08-01 17:57:00,
2013-08-01 10:58:00,97.4,31.7,29.32,SSE,158,5.5,8.6,10,-99.99,,,0.00,1524,rob ver 1B,2013-08-01 17:58:00,
2013-08-01 10:59:00,97.2,30.8,29.32,SSE,152,10.2,13.0,9,-99.99,,,0.00,0,rob ver 1B,2013-08-01 17:59:00,
2013-08-01 11:00:00,102.0,37.0,29.32,SSE,154,9.4,12.0,10,-99.99,,,0.00,0,rob ver 1A,2013-08-01 18:00:00,
2013-08-01 11:01:00,96.8,31.2,29.32,South,173,10.7,14.3,10,-99.99,,,0.00,0,rob ver 1B,2013-08-01 18:01:00,
2013-08-01 11:02:00,97.2,32.3,29.32,SSE,158,12.5,15.7,10,-99.99,,,0.00,0,rob ver 1B,2013-08-01 18:02:00,
2013-08-01 11:03:00,97.1,31.9,29.32,SSE,167,8.6,12.8,10,-99.99,,,0.00,0,rob ver 1B,2013-08-01 18:03:00,
2013-08-01 11:04:00,97.1,31.8,29.32,SSE,161,6.0,8.5,9,-99.99,,,0.00,0,rob ver 1B,2013-08-01 18:04:00,
2013-08-01 11:05:00,101.6,37.2,29.32,SE,135,8.7,11.0,11,-99.99,,,0.00,0,rob ver 1A,2013-08-01 18:05:00,
2013-08-01 11:06:00,97.8,31.5,29.32,South,178,8.3,13.2,9,-99.99,,,0.00,0,rob ver 1B,2013-08-01 18:06:00,
2013-08-01 11:07:00,98.2,30.7,29.32,SSW,194,9.8,13.1,9,-99.99,,,0.00,0,rob ver 1B,2013-08-01 18:07:00,
2013-08-01 11:08:00,98.5,29.9,29.32,South,177,9.1,11.1,8,-99.99,,,0.00,0,rob ver 1B,2013-08-01 18:08:00,
2013-08-01 11:09:00,98.7,30.0,29.32,South,170,9.3,13.3,9,-99.99,,,0.00,0,rob ver 1B,2013-08-01 18:09:00,
2013-08-01 11:10:00,99.0,31.2,29.32,SSE,153,11.8,15.2,9,-99.99,,,0.00,0,rob ver 1B,2013-08-01 18:10:00,
2013-08-01 11:11:00,102.0,37.9,29.32,SSE,159,8.6,11.0,11,-99.99,,,0.00,0,rob ver 1A,2013-08-01 18:11:00,
2013-08-01 11:12:00,98.1,32.0,29.32,SSE,164,9.6,13.2,9,-99.99,,,0.00,0,rob ver 1B,2013-08-01 18:12:00,
2013-08-01 11:13:00,98.1,31.6,29.32,South,175,9.9,12.1,9,-99.99,,,0.00,0,rob ver 1B,2013-08-01 18:13:00,
2013-08-01 11:14:00,98.2,31.1,29.32,South,169,8.1,11.9,9,-99.99,,,0.00,0,rob ver 1B,2013-08-01 18:14:00,
2013-08-01 11:15:00,98.2,30.3,29.32,South,180,9.7,13.4,9,-99.99,,,0.00,0,rob ver 1B,2013-08-01 18:15:00,
2013-08-01 11:16:00,98.2,30.9,29.32,South,182,10.3,15.5,9,-99.99,,,0.00,0,rob ver 1B,2013-08-01 18:16:00,
2013-08-01 11:17:00,102.1,39.0,29.32,SSE,157,11.4,18.6,11,-99.99,,,0.00,0,rob ver 1A,2013-08-01 18:17:00,
2013-08-01 11:18:00,98.0,32.2,29.32,South,181,13.2,18.2,9,-99.99,,,0.00,0,rob ver 1B,2013-08-01 18:18:00,
2013-08-01 11:19:00,98.0,32.1,29.32,South,173,10.3,13.9,9,-99.99,,,0.00,0,rob ver 1B,2013-08-01 18:19:00,
2013-08-01 11:20:00,98.0,32.0,29.32,SSW,198,8.9,14.8,10,-99.99,,,0.00,0,rob ver 1B,2013-08-01 18:20:00,
2013-08-01 11:21:00,98.0,31.7,29.32,South,179,13.2,15.9,9,-99.99,,,0.00,0,rob ver 1B,2013-08-01 18:21:00,
2013-08-01 11:22:00,97.8,30.8,29.32,South,179,12.8,15.9,9,-99.99,,,0.00,0,rob ver 1B,2013-08-01 18:22:00,
2013-08-01 11:23:00,102.6,39.3,29.32,SSE,148,5.0,8.9,11,-99.99,,,0.00,0,rob ver 1A,2013-08-01 18:23:00,
2013-08-01 11:24:00,98.2,32.0,29.32,South,177,10.9,17.5,9,-99.99,,,0.00,0,rob ver 1B,2013-08-01 18:24:00,
2013-08-01 11:25:00,98.2,32.1,29.32,SSE,161,11.1,15.7,9,-99.99,,,0.00,0,rob ver 1B,2013-08-01 18:25:00,
2013-08-01 11:26:00,98.3,32.4,29.32,SSE,167,11.4,14.8,9,-99.99,,,0.00,0,rob ver 1B,2013-08-01 18:26:00,
2013-08-01 11:27:00,98.5,32.2,29.32,SSE,163,9.8,12.0,9,-99.99,,,0.00,0,rob ver 1B,2013-08-01 18:27:00,
2013-08-01 11:28:00,103.4,39.8,29.32,SSE,149,10.4,18.3,11,-99.99,,,0.00,0,rob ver 1A,2013-08-01 18:28:00,
2013-08-01 11:29:00,98.3,32.1,29.32,South,176,7.9,10.6,9,-99.99,,,0.00,0,rob ver 1B,2013-08-01 18:29:00,
2013-08-01 11:30:00,98.3,32.5,29.32,South,172,11.3,14.7,10,-99.99,,,0.00,0,rob ver 1B,2013-08-01 18:30:00,
2013-08-01 11:31:00,98.1,32.9,29.32,South,184,6.1,10.6,10,-99.99,,,0.00,0,rob ver 1B,2013-08-01 18:31:00,
2013-08-01 11:32:00,98.1,33.0,29.32,SSE,152,5.6,8.0,10,-99.99,,,0.00,0,rob ver 1B,2013-08-01 18:32:00,
2013-08-01 11:33:00,98.2,34.0,29.32,South,173,8.4,11.1,10,-99.99,,,0.00,0,rob ver 1B,2013-08-01 18:33:00,
2013-08-01 11:34:00,103.2,40.1,29.32,SSE,149,8.6,11.7,11,-99.99,,,0.00,0,rob ver 1A,2013-08-01 18:34:00,
2013-08-01 11:35:00,98.6,34.1,29.32,South,189,9.7,14.7,10,-99.99,,,0.00,0,rob ver 1B,2013-08-01 18:35:00,
2013-08-01 11:36:00,98.6,33.5,29.32,South,175,12.0,15.8,10,-99.99,,,0.00,0,rob ver 1B,2013-08-01 18:36:00,
2013-08-01 11:37:00,98.6,33.8,29.32,South,169,12.3,14.5,10,-99.99,,,0.00,0,rob ver 1B,2013-08-01 18:37:00,
2013-08-01 11:38:00,98.7,33.7,29.32,SSE,163,9.9,12.3,10,-99.99,,,0.00,0,rob ver 1B,2013-08-01 18:38:00,
2013-08-01 11:39:00,102.8,40.4,29.32,SSE,149,12.4,15.8,11,-99.99,,,0.00,0,rob ver 1A,2013-08-01 18:39:00,
2013-08-01 11:40:00,98.0,34.8,29.32,South,184,8.6,12.0,11,-99.99,,,0.00,0,rob ver 1B,2013-08-01 18:40:00,
2013-08-01 11:41:00,98.1,35.1,29.32,South,187,7.5,9.2,11,-99.99,,,0.00,0,rob ver 1B,2013-08-01 18:41:00,
2013-08-01 11:42:00,98.1,35.3,29.32,SSW,193,7.3,9.7,11,-99.99,,,0.00,0,rob ver 1B,2013-08-01 18:42:00,
2013-08-01 11:43:00,98.3,34.4,29.32,SSE,167,12.7,16.3,10,-99.99,,,0.00,0,rob ver 1B,2013-08-01 18:43:00,
2013-08-01 11:44:00,98.6,34.2,29.32,SSE,162,13.1,16.1,10,-99.99,,,0.00,0,rob ver 1B,2013-08-01 18:44:00,
2013-08-01 11:45:00,103.2,40.3,29.32,SSE,155,8.3,11.1,11,-99.99,,,0.00,0,rob ver 1A,2013-08-01 18:45:00,
2013-08-01 11:46:00,99.1,34.3,29.32,South,169,9.9,14.0,10,-99.99,,,0.00,0,rob ver 1B,2013-08-01 18:46:00,
2013-08-01 11:47:00,99.2,34.8,29.32,SE,138,11.1,13.5,10,-99.99,,,0.00,0,rob ver 1B,2013-08-01 18:47:00,
2013-08-01 11:48:00,99.1,34.9,29.32,SE,146,10.2,16.2,10,-99.99,,,0.00,0,rob ver 1B,2013-08-01 18:48:00,
2013-08-01 11:49:00,99.1,34.7,29.32,SSE,168,11.4,16.0,10,-99.99,,,0.00,0,rob ver 1B,2013-08-01 18:49:00,
2013-08-01 11:50:00,99.0,34.8,29.32,SE,142,10.7,14.2,10,-99.99,,,0.00,0,rob ver 1B,2013-08-01 18:50:00,
2013-08-01 11:51:00,103.3,40.4,29.32,SE,143,8.2,13.2,11,-99.99,,,0.00,0,rob ver 1A,2013-08-01 18:51:00,
2013-08-01 11:52:00,98.9,34.8,29.32,South,169,9.7,12.4,10,-99.99,,,0.00,0,rob ver 1B,2013-08-01 18:52:00,
2013-08-01 11:53:00,99.1,34.9,29.32,South,171,8.9,11.4,10,-99.99,,,0.00,0,rob ver 1B,2013-08-01 18:53:00,
2013-08-01 11:54:00,99.4,35.0,29.32,South,190,7.6,9.6,10,-99.99,,,0.00,0,rob ver 1B,2013-08-01 18:54:00,
2013-08-01 11:55:00,99.5,35.2,29.32,South,181,7.7,11.1,10,-99.99,,,0.00,0,rob ver 1B,2013-08-01 18:55:00,
2013-08-01 11:56:00,99.5,35.5,29.32,SSW,196,4.2,7.3,10,-99.99,,,0.00,0,rob ver 1B,2013-08-01 18:56:00,
2013-08-01 11:57:00,99.8,35.7,29.32,SSE,164,10.7,16.4,10,-99.99,,,0.00,0,rob ver 1B,2013-08-01 18:57:00,
2013-08-01 11:58:00,104.2,40.9,29.32,SSE,147,8.5,12.5,11,-99.99,,,0.00,0,rob ver 1A,2013-08-01 18:58:00,
2013-08-01 11:59:00,99.2,35.7,29.32,SSE,153,9.3,14.3,11,-99.99,,,0.00,0,rob ver 1B,2013-08-01 18:59:00,
2013-08-01 12:00:00,98.9,35.7,29.32,SE,141,9.0,11.7,11,-99.99,,,0.00,0,rob ver 1B,2013-08-01 19:00:00,
2013-08-01 12:01:00,98.6,35.6,29.32,SE,135,6.0,7.7,11,-99.99,,,0.00,0,rob ver 1B,2013-08-01 19:01:00,
2013-08-01 12:02:00,98.7,35.6,29.32,SSW,204,6.3,9.8,11,-99.99,,,0.00,0,rob ver 1B,2013-08-01 19:02:00,
2013-08-01 12:03:00,104.5,42.1,29.29,SSE,157,10.1,14.2,12,-99.99,,,0.00,0,rob ver 1A,2013-08-01 19:03:00,
2013-08-01 12:04:00,99.3,36.2,29.32,South,180,7.7,9.1,11,-99.99,,,0.00,0,rob ver 1B,2013-08-01 19:04:00,
2013-08-01 12:05:00,99.6,35.9,29.32,South,175,4.1,8.9,11,-99.99,,,0.00,0,rob ver 1B,2013-08-01 19:05:00,
2013-08-01 12:06:00,99.8,36.2,29.32,SSW,196,7.5,10.3,11,-99.99,,,0.00,0,rob ver 1B,2013-08-01 19:06:00,
2013-08-01 12:07:00,99.7,36.2,29.32,SSW,207,7.3,9.4,11,-99.99,,,0.00,0,rob ver 1B,2013-08-01 19:07:00,
2013-08-01 12:08:00,99.6,36.0,29.32,SSW,207,4.9,7.1,11,-99.99,,,0.00,0,rob ver 1B,2013-08-01 19:08:00,
2013-08-01 12:09:00,104.6,42.0,29.29,SE,145,12.5,14.9,12,-99.99,,,0.00,0,rob ver 1A,2013-08-01 19:09:00,
2013-08-01 12:10:00,99.9,36.5,29.32,NW,309,1.5,3.2,11,-99.99,,,0.00,0,rob ver 1B,2013-08-01 19:10:00,
2013-08-01 12:11:00,100.1,36.7,29.32,South,191,4.5,7.1,11,-99.99,,,0.00,0,rob ver 1B,2013-08-01 19:11:00,
2013-08-01 12:12:00,100.4,36.6,29.32,SW,235,4.2,6.8,11,-99.99,,,0.00,0,rob ver 1B,2013-08-01 19:12:00,
2013-08-01 12:13:00,100.5,36.6,29.32,SSW,200,4.0,6.2,11,-99.99,,,0.00,0,rob ver 1B,2013-08-01 19:13:00,
2013-08-01 12:14:00,100.5,36.6,29.32,SSE,156,6.9,13.0,10,-99.99,,,0.00,0,rob ver 1B,2013-08-01 19:14:00,
2013-08-01 12:15:00,99.9,36.3,29.29,ESE,103,7.2,10.7,11,-99.99,,,0.00,0,rob ver 1B,2013-08-01 19:15:00,
2013-08-01 12:16:00,99.6,36.7,29.29,East,92,4.1,6.2,11,-99.99,,,0.00,0,rob ver 1B,2013-08-01 19:16:00,
2013-08-01 12:17:00,105.3,42.6,29.29,South,180,10.6,15.2,12,-99.99,,,0.00,0,rob ver 1A,2013-08-01 19:17:00,
2013-08-01 12:18:00,100.9,36.9,29.32,SSE,156,9.9,12.6,10,-99.99,,,0.00,0,rob ver 1B,2013-08-01 19:18:00,
2013-08-01 12:19:00,100.9,36.7,29.29,SSE,150,12.4,15.8,10,-99.99,,,0.00,0,rob ver 1B,2013-08-01 19:19:00,
2013-08-01 12:20:00,100.6,36.6,29.29,SE,135,8.1,11.0,11,-99.99,,,0.00,0,rob ver 1B,2013-08-01 19:20:00,
2013-08-01 12:21:00,100.7,36.9,29.29,SE,140,10.2,14.0,10,-99.99,,,0.00,0,rob ver 1B,2013-08-01 19:21:00,
2013-08-01 12:22:00,105.4,43.6,29.29,SSE,160,12.8,14.9,12,-99.99,,,0.00,0,rob ver 1A,2013-08-01 19:22:00,
2013-08-01 12:23:00,100.6,37.2,29.32,SSE,152,9.8,15.3,11,-99.99,,,0.00,0,rob ver 1B,2013-08-01 19:23:00,
2013-08-01 12:24:00,100.6,37.2,29.32,SE,133,7.2,11.7,11,-99.99,,,0.00,0,rob ver 1B,2013-08-01 19:24:00,
2013-08-01 12:25:00,100.4,37.6,29.29,East,100,7.9,11.9,11,-99.99,,,0.00,0,rob ver 1B,2013-08-01 19:25:00,
2013-08-01 12:26:00,100.5,37.8,29.29,East,85,12.0,15.5,11,-99.99,,,0.00,0,rob ver 1B,2013-08-01 19:26:00,
2013-08-01 12:27:00,100.6,37.8,29.29,SE,124,11.8,15.6,11,-99.99,,,0.00,0,rob ver 1B,2013-08-01 19:27:00,
2013-08-01 12:28:00,105.4,43.4,29.29,South,178,13.4,15.9,12,-99.99,,,0.00,0,rob ver 1A,2013-08-01 19:28:00,
2013-08-01 12:29:00,100.9,37.8,29.29,South,185,6.2,9.3,11,-99.99,,,0.00,0,rob ver 1B,2013-08-01 19:29:00,
2013-08-01 12:30:00,101.1,38.1,29.29,South,180,9.5,12.3,11,-99.99,,,0.00,0,rob ver 1B,2013-08-01 19:30:00,
2013-08-01 12:31:00,101.5,38.3,29.29,SSE,165,10.2,13.1,11,-99.99,,,0.00,0,rob ver 1B,2013-08-01 19:31:00,
2013-08-01 12:32:00,101.7,38.4,29.29,SSE,147,8.9,14.9,11,-99.99,,,0.00,0,rob ver 1B,2013-08-01 19:32:00,
2013-08-01 12:33:00,105.6,43.7,29.29,South,177,14.9,19.5,12,-99.99,,,0.00,0,rob ver 1A,2013-08-01 19:33:00,
2013-08-01 12:34:00,101.2,38.3,29.29,SSE,167,11.3,13.9,11,-99.99,,,0.00,0,rob ver 1B,2013-08-01 19:34:00,
2013-08-01 12:35:00,100.8,38.2,29.29,SSE,161,7.3,11.3,11,-99.99,,,0.00,0,rob ver 1B,2013-08-01 19:35:00,
2013-08-01 12:36:00,100.5,38.3,29.29,South,188,7.7,11.2,11,-99.99,,,0.00,0,rob ver 1B,2013-08-01 19:36:00,
2013-08-01 12:37:00,100.6,38.2,29.29,SSW,192,7.8,10.4,11,-99.99,,,0.00,0,rob ver 1B,2013-08-01 19:37:00,
2013-08-01 12:38:00,100.7,38.3,29.29,South,173,9.8,13.6,11,-99.99,,,0.00,0,rob ver 1B,2013-08-01 19:38:00,
2013-08-01 12:39:00,105.7,44.0,29.29,SE,143,15.7,18.7,12,-99.99,,,0.00,0,rob ver 1A,2013-08-01 19:39:00,
2013-08-01 12:40:00,101.3,38.7,29.29,South,179,11.9,15.5,11,-99.99,,,0.00,0,rob ver 1B,2013-08-01 19:40:00,
2013-08-01 12:41:00,101.7,38.9,29.29,SSE,154,11.0,13.8,11,-99.99,,,0.00,0,rob ver 1B,2013-08-01 19:41:00,
2013-08-01 12:42:00,101.7,39.1,29.29,SSE,148,12.1,15.7,11,-99.99,,,0.00,0,rob ver 1B,2013-08-01 19:42:00,
2013-08-01 12:43:00,101.6,39.4,29.29,SSE,166,11.4,19.1,12,-99.99,,,0.00,2006,rob ver 1B,2013-08-01 19:43:00,
2013-08-01 12:44:00,101.3,39.7,29.29,SSE,160,12.5,16.9,12,-99.99,,,0.00,0,rob ver 1B,2013-08-01 19:44:00,
2013-08-01 12:45:00,105.8,43.9,29.29,SSE,163,15.4,21.7,12,-99.99,,,0.00,0,rob ver 1A,2013-08-01 19:45:00,
2013-08-01 12:46:00,100.9,39.6,29.29,SE,132,15.0,17.5,12,-99.99,,,0.00,0,rob ver 1B,2013-08-01 19:46:00,
2013-08-01 12:47:00,101.0,39.6,29.29,SSE,147,12.2,14.6,12,-99.99,,,0.00,0,rob ver 1B,2013-08-01 19:47:00,
2013-08-01 12:48:00,100.9,40.0,29.29,SSE,149,11.0,13.2,12,-99.99,,,0.00,0,rob ver 1B,2013-08-01 19:48:00,
2013-08-01 12:49:00,100.8,40.3,29.29,SE,126,8.7,13.6,12,-99.99,,,0.00,0,rob ver 1B,2013-08-01 19:49:00,
2013-08-01 12:50:00,105.6,43.5,29.29,SSW,195,9.2,14.2,12,-99.99,,,0.00,0,rob ver 1A,2013-08-01 19:50:00,
2013-08-01 12:51:00,101.1,40.7,29.29,SE,143,7.7,10.1,12,-99.99,,,0.00,0,rob ver 1B,2013-08-01 19:51:00,
2013-08-01 12:52:00,101.0,40.7,29.29,SSE,164,8.0,9.6,12,-99.99,,,0.00,0,rob ver 1B,2013-08-01 19:52:00,
2013-08-01 12:53:00,101.2,40.8,29.29,SE,128,7.1,10.7,12,-99.99,,,0.00,0,rob ver 1B,2013-08-01 19:53:00,
2013-08-01 12:54:00,101.5,40.9,29.29,SE,140,8.3,11.4,12,-99.99,,,0.00,0,rob ver 1B,2013-08-01 19:54:00,
2013-08-01 12:55:00,101.3,40.8,29.29,SE,138,6.5,10.4,12,-99.99,,,0.00,0,rob ver 1B,2013-08-01 19:55:00,
2013-08-01 12:56:00,101.2,40.9,29.29,SE,146,5.2,7.8,12,-99.99,,,0.00,0,rob ver 1B,2013-08-01 19:56:00,
2013-08-01 12:57:00,106.8,42.5,29.29,South,177,14.9,19.0,11,-99.99,,,0.00,0,rob ver 1A,2013-08-01 19:57:00,
2013-08-01 12:58:00,101.5,40.4,29.29,West,260,5.4,6.6,12,-99.99,,,0.00,0,rob ver 1B,2013-08-01 19:58:00,
2013-08-01 12:59:00,101.4,40.4,29.29,WNW,303,4.3,6.5,12,-99.99,,,0.00,0,rob ver 1B,2013-08-01 19:59:00,
2013-08-01 13:00:00,101.4,40.2,29.29,NW,311,5.6,6.8,12,-99.99,,,0.00,0,rob ver 1B,2013-08-01 20:00:00,
2013-08-01 13:01:00,101.3,40.0,29.29,NW,326,3.9,7.3,12,-99.99,,,0.00,0,rob ver 1B,2013-08-01 20:01:00,
2013-08-01 13:02:00,101.5,39.9,29.29,NNW,331,2.9,4.9,12,-99.99,,,0.00,0,rob ver 1B,2013-08-01 20:02:00,
2013-08-01 13:03:00,101.8,39.9,29.29,WNW,282,3.7,5.4,12,-99.99,,,0.00,0,rob ver 1B,2013-08-01 20:03:00,
2013-08-01 13:04:00,107.3,42.7,29.29,SSE,156,19.4,26.0,11,-99.99,,,0.00,0,rob ver 1A,2013-08-01 20:04:00,
2013-08-01 13:05:00,102.3,40.1,29.29,SSE,156,9.9,13.6,11,-99.99,,,0.00,0,rob ver 1B,2013-08-01 20:05:00,
2013-08-01 13:06:00,102.2,40.0,29.29,SE,144,9.6,13.8,11,-99.99,,,0.00,0,rob ver 1B,2013-08-01 20:06:00,
2013-08-01 13:07:00,102.0,39.9,29.29,SE,126,5.1,9.5,12,-99.99,,,0.00,0,rob ver 1B,2013-08-01 20:07:00,
2013-08-01 13:08:00,102.1,40.2,29.29,South,178,5.2,9.6,12,-99.99,,,0.00,0,rob ver 1B,2013-08-01 20:08:00,
2013-08-01 13:09:00,102.3,40.2,29.29,South,190,8.8,13.2,11,-99.99,,,0.00,0,rob ver 1B,2013-08-01 20:09:00,
2013-08-01 13:10:00,106.8,43.0,29.29,South,172,19.6,25.3,11,-99.99,,,0.00,0,rob ver 1A,2013-08-01 20:10:00,
2013-08-01 13:11:00,102.2,40.0,29.29,SE,124,4.9,7.0,12,-99.99,,,0.00,0,rob ver 1B,2013-08-01 20:11:00,
2013-08-01 13:12:00,102.2,40.1,29.29,South,184,2.6,4.7,11,-99.99,,,0.00,0,rob ver 1B,2013-08-01 20:12:00,
2013-08-01 13:13:00,102.6,40.5,29.29,SSE,165,2.4,5.8,11,-99.99,,,0.00,0,rob ver 1B,2013-08-01 20:13:00,
2013-08-01 13:14:00,103.1,40.4,29.29,SSW,213,7.0,9.5,11,-99.99,,,0.00,0,rob ver 1B,2013-08-01 20:14:00,
2013-08-01 13:15:00,106.1,42.1,29.29,SE,138,20.9,30.6,11,-99.99,,,0.00,0,rob ver 1A,2013-08-01 20:15:00,
2013-08-01 13:16:00,103.2,39.9,29.29,SE,133,6.8,10.5,11,-99.99,,,0.00,0,rob ver 1B,2013-08-01 20:16:00,
2013-08-01 13:17:00,102.9,39.7,29.29,ESE,115,10.5,14.9,11,-99.99,,,0.00,0,rob ver 1B,2013-08-01 20:17:00,
2013-08-01 13:18:00,103.0,39.7,29.29,SSE,147,10.0,12.4,11,-99.99,,,0.00,0,rob ver 1B,2013-08-01 20:18:00,
2013-08-01 13:19:00,103.3,39.8,29.29,SSE,147,12.6,18.7,11,-99.99,,,0.00,0,rob ver 1B,2013-08-01 20:19:00,
2013-08-01 13:20:00,103.2,39.8,29.29,SE,145,13.7,18.5,11,-99.99,,,0.00,0,rob ver 1B,2013-08-01 20:20:00,
2013-08-01 13:21:00,103.1,39.8,29.29,SSE,150,14.7,19.3,11,-99.99,,,0.00,0,rob ver 1B,2013-08-01 20:21:00,
2013-08-01 13:22:00,103.0,39.8,29.29,SSE,152,15.4,19.3,11,-99.99,,,0.00,0,rob ver 1B,2013-08-01 20:22:00,
2013-08-01 13:23:00,107.0,41.5,29.29,SE,145,14.5,19.8,11,-99.99,,,0.00,0,rob ver 1A,2013-08-01 20:23:00,
2013-08-01 13:24:00,102.6,39.6,29.29,SSW,192,11.1,14.6,11,-99.99,,,0.00,0,rob ver 1B,2013-08-01 20:24:00,
2013-08-01 13:25:00,102.5,39.6,29.29,SSW,194,9.3,11.6,11,-99.99,,,0.00,0,rob ver 1B,2013-08-01 20:25:00,
2013-08-01 13:26:00,102.3,39.5,29.26,South,174,12.3,17.2,11,-99.99,,,0.00,0,rob ver 1B,2013-08-01 20:26:00,
2013-08-01 13:27:00,102.2,39.4,29.26,SSE,156,12.3,16.8,11,-99.99,,,0.00,0,rob ver 1B,2013-08-01 20:27:00,
2013-08-01 13:28:00,102.9,39.2,29.26,South,177,9.7,13.8,11,-99.99,,,0.00,0,rob ver 1B,2013-08-01 20:28:00,
2013-08-01 13:29:00,107.2,40.3,29.29,SSE,154,18.6,22.6,10,-99.99,,,0.00,0,rob ver 1A,2013-08-01 20:29:00,
2013-08-01 13:30:00,103.2,39.4,29.29,SE,144,11.1,14.1,11,-99.99,,,0.00,0,rob ver 1B,2013-08-01 20:30:00,
2013-08-01 13:31:00,102.9,39.6,29.29,SSE,150,8.5,11.2,11,-99.99,,,0.00,0,rob ver 1B,2013-08-01 20:31:00,
2013-08-01 13:32:00,103.1,39.6,29.26,SE,138,11.2,16.0,11,-99.99,,,0.00,0,rob ver 1B,2013-08-01 20:32:00,
2013-08-01 13:33:00,103.1,39.6,29.26,SSE,165,11.6,16.5,11,-99.99,,,0.00,0,rob ver 1B,2013-08-01 20:33:00,
2013-08-01 13:34:00,103.2,39.6,29.26,South,180,15.7,19.7,11,-99.99,,,0.00,0,rob ver 1B,2013-08-01 20:34:00,
2013-08-01 13:35:00,106.6,40.9,29.29,SSE,155,21.6,25.9,10,-99.99,,,0.00,0,rob ver 1A,2013-08-01 20:35:00,
2013-08-01 13:36:00,103.0,39.9,29.26,South,185,13.2,16.6,11,-99.99,,,0.00,0,rob ver 1B,2013-08-01 20:36:00,
2013-08-01 13:37:00,103.1,40.2,29.26,South,184,12.5,16.7,11,-99.99,,,0.00,0,rob ver 1B,2013-08-01 20:37:00,
2013-08-01 13:38:00,103.1,40.4,29.26,South,178,12.4,16.6,11,-99.99,,,0.00,0,rob ver 1B,2013-08-01 20:38:00,
2013-08-01 13:39:00,103.7,40.1,29.26,SSW,192,13.1,16.6,11,-99.99,,,0.00,0,rob ver 1B,2013-08-01 20:39:00,
2013-08-01 13:40:00,103.8,39.8,29.26,South,182,13.5,17.2,11,-99.99,,,0.00,0,rob ver 1B,2013-08-01 20:40:00,
2013-08-01 13:41:00,105.2,39.9,29.29,SSE,151,17.3,22.6,10,-99.99,,,0.00,0,rob ver 1A,2013-08-01 20:41:00,
2013-08-01 13:42:00,103.2,39.7,29.26,South,173,11.9,14.6,11,-99.99,,,0.00,0,rob ver 1B,2013-08-01 20:42:00,
2013-08-01 13:43:00,103.2,39.8,29.26,South,170,10.9,14.7,11,-99.99,,,0.00,0,rob ver 1B,2013-08-01 20:43:00,
2013-08-01 13:44:00,103.6,40.0,29.26,SSE,163,12.6,16.3,11,-99.99,,,0.00,0,rob ver 1B,2013-08-01 20:44:00,
2013-08-01 13:45:00,105.6,40.6,29.29,SSE,159,23.3,27.5,11,-99.99,,,0.00,0,rob ver 1A,2013-08-01 20:45:00,
2013-08-01 13:46:00,103.3,40.0,29.26,SE,124,9.6,13.5,11,-99.99,,,0.00,0,rob ver 1B,2013-08-01 20:46:00,
2013-08-01 13:47:00,103.0,39.9,29.26,ESE,109,7.7,9.2,11,-99.99,,,0.00,0,rob ver 1B,2013-08-01 20:47:00,
2013-08-01 13:48:00,102.7,40.0,29.26,ESE,110,6.3,9.1,11,-99.99,,,0.00,0,rob ver 1B,2013-08-01 20:48:00,
2013-08-01 13:49:00,102.4,39.8,29.26,East,87,5.4,7.8,11,-99.99,,,0.00,0,rob ver 1B,2013-08-01 20:49:00,
2013-08-01 13:50:00,102.1,39.8,29.26,ESE,107,2.9,5.4,11,-99.99,,,0.00,0,rob ver 1B,2013-08-01 20:50:00,
2013-08-01 13:51:00,106.1,41.1,29.29,SSE,157,18.7,24.6,11,-99.99,,,0.00,0,rob ver 1A,2013-08-01 20:51:00,
2013-08-01 13:52:00,102.7,39.6,29.26,SW,215,9.7,14.2,11,-99.99,,,0.00,0,rob ver 1B,2013-08-01 20:52:00,
2013-08-01 13:53:00,102.9,39.6,29.26,SSW,208,9.9,14.4,11,-99.99,,,0.00,0,rob ver 1B,2013-08-01 20:53:00,
2013-08-01 13:54:00,103.2,39.6,29.26,SW,228,10.0,12.3,11,-99.99,,,0.00,0,rob ver 1B,2013-08-01 20:54:00,
2013-08-01 13:55:00,103.0,39.6,29.26,SW,225,8.2,11.1,11,-99.99,,,0.00,0,rob ver 1B,2013-08-01 20:55:00,
2013-08-01 13:56:00,103.2,39.6,29.26,SW,220,6.8,8.3,11,-99.99,,,0.00,0,rob ver 1B,2013-08-01 20:56:00,
2013-08-01 13:57:00,105.7,41.8,29.29,South,170,20.4,25.8,11,-99.99,,,0.00,0,rob ver 1A,2013-08-01 20:57:00,
2013-08-01 13:58:00,103.7,39.7,29.26,SSW,209,7.5,9.6,11,-99.99,,,0.00,0,rob ver 1B,2013-08-01 20:58:00,
2013-08-01 13:59:00,103.6,39.8,29.26,South,180,7.4,12.5,11,-99.99,,,0.00,0,rob ver 1B,2013-08-01 20:59:00,
2013-08-01 14:00:00,103.4,39.7,29.26,South,178,5.8,9.0,11,-99.99,,,0.00,0,rob ver 1B,2013-08-01 21:00:00,
2013-08-01 14:01:00,103.4,39.3,29.26,South,181,8.5,12.7,11,-99.99,,,0.00,0,rob ver 1B,2013-08-01 21:01:00,
2013-08-01 14:02:00,106.1,42.3,29.29,SSE,168,15.8,19.2,11,-99.99,,,0.00,0,rob ver 1A,2013-08-01 21:02:00,
2013-08-01 14:03:00,103.6,39.4,29.26,ESE,117,12.8,15.0,11,-99.99,,,0.00,0,rob ver 1B,2013-08-01 21:03:00,
2013-08-01 14:04:00,104.0,39.7,29.26,ESE,118,13.4,15.6,11,-99.99,,,0.00,0,rob ver 1B,2013-08-01 21:04:00,
2013-08-01 14:05:00,104.1,39.8,29.26,SE,130,11.3,18.9,10,-99.99,,,0.00,0,rob ver 1B,2013-08-01 21:05:00,
2013-08-01 14:06:00,104.2,39.6,29.26,ESE,122,9.1,11.5,11,-99.99,,,0.00,0,rob ver 1B,2013-08-01 21:06:00,
2013-08-01 14:07:00,103.9,39.5,29.26,SE,126,8.1,10.1,11,-99.99,,,0.00,0,rob ver 1B,2013-08-01 21:07:00,
2013-08-01 14:08:00,105.5,41.0,29.29,SE,144,15.0,17.3,11,-99.99,,,0.00,0,rob ver 1A,2013-08-01 21:08:00,
2013-08-01 14:14:00,105.6,41.0,29.26,SSE,163,19.6,23.0,11,-99.99,,,0.00,0,rob ver 1A,2013-08-01 21:14:00,
2013-08-01 14:19:00,105.3,40.7,29.29,SSE,151,16.3,22.3,11,-99.99,,,0.00,0,rob ver 1A,2013-08-01 21:19:00,
2013-08-01 14:24:00,105.0,40.8,29.26,SSE,159,12.9,18.5,11,-99.99,,,0.00,0,rob ver 1A,2013-08-01 21:24:00,
2013-08-01 14:30:00,105.7,41.1,29.26,SSE,160,12.2,16.9,11,-99.99,,,0.00,0,rob ver 1A,2013-08-01 21:30:00,
2013-08-01 14:35:00,105.6,40.9,29.26,SE,141,13.8,18.1,11,-99.99,,,0.00,0,rob ver 1A,2013-08-01 21:35:00,
2013-08-01 14:40:00,106.2,40.8,29.26,SSE,168,15.4,22.5,11,-99.99,,,0.00,0,rob ver 1A,2013-08-01 21:40:00,
2013-08-01 14:45:00,106.3,41.2,29.26,SSE,167,15.8,19.5,11,-99.99,,,0.00,0,rob ver 1A,2013-08-01 21:45:00,
2013-08-01 14:53:00,105.7,41.2,29.26,SE,131,8.5,10.9,11,-99.99,,,0.00,0,rob ver 1A,2013-08-01 21:53:00,
2013-08-01 14:59:00,105.5,42.0,29.26,SSE,167,12.6,16.8,11,-99.99,,,0.00,0,rob ver 1A,2013-08-01 21:59:00,
2013-08-01 15:04:00,105.5,42.6,29.26,SE,134,12.4,17.1,12,-99.99,,,0.00,0,rob ver 1A,2013-08-01 22:04:00,
2013-08-01 15:10:00,105.7,43.4,29.26,SSE,154,12.9,20.4,12,-99.99,,,0.00,0,rob ver 1A,2013-08-01 22:10:00,
2013-08-01 15:16:00,105.3,43.1,29.26,SE,142,11.0,16.2,12,-99.99,,,0.00,0,rob ver 1A,2013-08-01 22:16:00,
2013-08-01 15:22:00,106.0,43.6,29.23,ESE,117,9.9,12.2,12,-99.99,,,0.00,0,rob ver 1A,2013-08-01 22:22:00,
2013-08-01 15:27:00,105.5,43.0,29.23,SE,139,16.4,21.1,12,-99.99,,,0.00,0,rob ver 1A,2013-08-01 22:27:00,
2013-08-01 15:32:00,105.6,43.7,29.23,SE,136,15.3,22.3,12,-99.99,,,0.00,0,rob ver 1A,2013-08-01 22:32:00,
2013-08-01 15:38:00,105.2,42.8,29.23,SE,144,9.9,13.4,12,-99.99,,,0.00,0,rob ver 1A,2013-08-01 22:38:00,
2013-08-01 15:43:00,105.0,43.5,29.23,SE,142,14.9,18.9,12,-99.99,,,0.00,0,rob ver 1A,2013-08-01 22:43:00,
2013-08-01 15:49:00,105.3,43.4,29.23,SSE,154,14.9,20.8,12,-99.99,,,0.00,0,rob ver 1A,2013-08-01 22:49:00,
2013-08-01 15:54:00,105.3,43.7,29.23,SSE,155,9.2,12.5,12,-99.99,,,0.00,0,rob ver 1A,2013-08-01 22:54:00,
2013-08-01 16:00:00,105.5,44.0,29.23,SSE,156,12.3,16.1,12,-99.99,,,0.00,0,rob ver 1A,2013-08-01 23:00:00,
2013-08-01 16:05:00,105.7,44.4,29.23,SE,131,16.2,19.6,12,-99.99,,,0.00,0,rob ver 1A,2013-08-01 23:05:00,
2013-08-01 16:43:00,105.3,45.7,29.23,SE,125,11.3,14.0,13,-99.99,,,0.00,0,rob ver 1A,2013-08-01 23:43:00,
2013-08-01 16:49:00,105.3,45.8,29.21,South,178,8.3,11.3,13,-99.99,,,0.00,0,rob ver 1A,2013-08-01 23:49:00,
2013-08-01 16:56:00,105.2,45.7,29.21,South,170,11.4,13.8,13,-99.99,,,0.00,0,rob ver 1A,2013-08-01 23:56:00,
2013-08-01 17:01:00,105.5,45.4,29.21,SSE,157,14.5,19.0,13,-99.99,,,0.00,0,rob ver 1A,2013-08-02 00:01:00,
2013-08-01 17:06:00,104.6,45.3,29.21,SSE,151,12.6,15.2,13,-99.99,,,0.00,0,rob ver 1A,2013-08-02 00:06:00,
2013-08-01 17:13:00,104.9,45.5,29.21,SSE,161,15.3,19.2,13,-99.99,,,0.00,0,rob ver 1A,2013-08-02 00:13:00,
2013-08-01 17:19:00,104.8,45.5,29.21,SE,141,13.1,18.4,13,-99.99,,,0.00,2295,rob ver 1A,2013-08-02 00:19:00,
2013-08-01 17:24:00,104.7,45.1,29.21,SSE,154,14.7,17.9,13,-99.99,,,0.00,2570,rob ver 1A,2013-08-02 00:24:00,
2013-08-01 17:30:00,104.9,45.2,29.21,SSE,149,14.4,17.7,13,-99.99,,,0.00,2311,rob ver 1A,2013-08-02 00:30:00,
2013-08-01 17:35:00,104.4,45.1,29.21,SSE,150,13.1,15.1,13,-99.99,,,0.00,2315,rob ver 1A,2013-08-02 00:35:00,
2013-08-01 17:42:00,104.4,45.1,29.21,South,172,11.3,14.2,13,-99.99,,,0.00,2176,rob ver 1A,2013-08-02 00:42:00,
2013-08-01 17:47:00,104.5,45.1,29.21,SE,144,8.3,9.9,13,-99.99,,,0.00,2030,rob ver 1A,2013-08-02 00:47:00,
2013-08-01 17:52:00,104.3,44.9,29.21,SSE,155,12.7,15.1,13,-99.99,,,0.00,1900,rob ver 1A,2013-08-02 00:52:00,
2013-08-01 17:58:00,104.4,44.9,29.21,SSE,153,11.5,15.6,13,-99.99,,,0.00,1755,rob ver 1A,2013-08-02 00:58:00,
2013-08-01 18:03:00,104.4,44.6,29.21,SE,144,10.3,12.6,13,-99.99,,,0.00,1637,rob ver 1A,2013-08-02 01:03:00,
2013-08-01 18:08:00,103.7,44.5,29.21,SE,133,9.3,10.9,13,-99.99,,,0.00,1460,rob ver 1A,2013-08-02 01:08:00,
2013-08-01 18:14:00,104.0,44.8,29.21,SSE,147,9.6,11.7,13,-99.99,,,0.00,1340,rob ver 1A,2013-08-02 01:14:00,
2013-08-01 18:19:00,103.7,44.5,29.21,SE,143,7.1,10.3,13,-99.99,,,0.00,1162,rob ver 1A,2013-08-02 01:19:00,
2013-08-01 18:26:00,103.7,44.5,29.21,SE,143,8.1,9.7,13,-99.99,,,0.00,827,rob ver 1A,2013-08-02 01:26:00,
2013-08-01 18:31:00,103.2,44.5,29.21,SE,138,9.7,11.7,13,-99.99,,,0.00,642.9,rob ver 1A,2013-08-02 01:31:00,
2013-08-01 18:36:00,103.1,44.4,29.21,SE,145,9.8,11.7,13,-99.99,,,0.00,654.7,rob ver 1A,2013-08-02 01:36:00,
2013-08-01 18:41:00,103.0,44.3,29.21,SSE,164,10.3,12.5,13,-99.99,,,0.00,629,rob ver 1A,2013-08-02 01:41:00,
2013-08-01 18:47:00,102.8,44.4,29.21,SE,138,8.9,11.2,13,-99.99,,,0.00,548.3,rob ver 1A,2013-08-02 01:47:00,
2013-08-01 18:52:00,102.7,44.6,29.21,SSE,162,10.4,14.3,14,-99.99,,,0.00,477.5,rob ver 1A,2013-08-02 01:52:00,
2013-08-01 18:58:00,102.7,44.6,29.21,SE,130,8.2,11.3,14,-99.99,,,0.00,419.1,rob ver 1A,2013-08-02 01:58:00,
2013-08-01 19:03:00,102.5,44.6,29.21,SE,140,8.2,9.5,14,-99.99,,,0.00,387.5,rob ver 1A,2013-08-02 02:03:00,
2013-08-01 19:08:00,102.3,44.8,29.21,SE,140,10.4,12.4,14,-99.99,,,0.00,370.7,rob ver 1A,2013-08-02 02:08:00,
2013-08-01 19:13:00,102.2,44.7,29.21,SSE,153,8.5,9.9,14,-99.99,,,0.00,317.6,rob ver 1A,2013-08-02 02:13:00,
2013-08-01 19:19:00,102.0,44.7,29.21,SSE,153,8.7,10.2,14,-99.99,,,0.00,220.8,rob ver 1A,2013-08-02 02:19:00,
2013-08-01 19:26:00,101.6,44.5,29.21,SSE,152,8.9,11.9,14,-99.99,,,0.00,112.5,rob ver 1A,2013-08-02 02:26:00,
2013-08-01 19:32:00,100.9,44.6,29.21,SSE,166,9.6,10.8,14,-99.99,,,0.00,53.05,rob ver 1A,2013-08-02 02:32:00,
2013-08-01 19:37:00,100.3,42.9,29.21,SSE,166,9.1,10.7,14,-99.99,,,0.00,33.61,rob ver 1A,2013-08-02 02:37:00,
2013-08-01 19:43:00,99.7,42.4,29.21,South,179,10.8,13.2,14,-99.99,,,0.00,26.36,rob ver 1A,2013-08-02 02:43:00,
2013-08-01 19:48:00,99.4,42.3,29.21,South,175,10.9,13.3,14,-99.99,,,0.00,16.8,rob ver 1A,2013-08-02 02:48:00,
2013-08-01 19:53:00,99.1,42.2,29.21,South,172,10.2,14.0,14,-99.99,,,0.00,8.24,rob ver 1A,2013-08-02 02:53:00,
2013-08-01 19:59:00,98.8,42.5,29.23,South,172,9.3,11.3,14,-99.99,,,0.00,1.318,rob ver 1A,2013-08-02 02:59:00,
2013-08-01 20:05:00,98.5,42.5,29.23,South,174,9.1,11.3,14,-99.99,,,0.00,0,rob ver 1A,2013-08-02 03:05:00,
2013-08-01 20:10:00,98.1,42.5,29.23,SSE,167,7.6,10.2,14,-99.99,,,0.00,0,rob ver 1A,2013-08-02 03:10:00,
2013-08-01 20:15:00,97.9,42.7,29.23,South,173,8.8,11.0,15,-99.99,,,0.00,0,rob ver 1A,2013-08-02 03:15:00,
2013-08-01 20:21:00,97.6,42.7,29.23,South,180,9.2,11.0,15,-99.99,,,0.00,0,rob ver 1A,2013-08-02 03:21:00,
2013-08-01 20:27:00,97.3,42.7,29.23,South,175,8.0,9.3,15,-99.99,,,0.00,0,rob ver 1A,2013-08-02 03:27:00,
2013-08-01 20:32:00,97.0,43.5,29.23,South,173,8.5,10.2,16,-99.99,,,0.00,0,rob ver 1A,2013-08-02 03:32:00,
2013-08-01 20:38:00,96.7,45.0,29.23,South,183,7.9,10.2,17,-99.99,,,0.00,0,rob ver 1A,2013-08-02 03:38:00,
2013-08-01 20:43:00,96.3,46.0,29.23,South,183,7.8,9.5,18,-99.99,,,0.00,0,rob ver 1A,2013-08-02 03:43:00,
2013-08-01 20:49:00,96.1,46.7,29.23,South,184,6.7,8.1,18,-99.99,,,0.00,0,rob ver 1A,2013-08-02 03:49:00,
2013-08-01 20:55:00,95.8,47.1,29.23,South,186,5.5,6.9,19,-99.99,,,0.00,0,rob ver 1A,2013-08-02 03:55:00,
2013-08-01 21:00:00,95.3,47.6,29.23,South,191,4.5,5.7,19,-99.99,,,0.00,0,rob ver 1A,2013-08-02 04:00:00,
2013-08-01 21:01:00,95.3,47.7,29.23,South,189,5.0,6.3,19,-99.99,,,0.00,0,rob ver 1A,2013-08-02 04:01:00,
2013-08-01 21:02:00,95.2,47.8,29.23,South,187,5.6,6.9,19,-99.99,,,0.00,0,rob ver 1A,2013-08-02 04:02:00,
2013-08-01 21:06:00,95.1,47.8,29.23,South,181,6.0,7.2,19,-99.99,,,0.00,0,rob ver 1A,2013-08-02 04:06:00,
2013-08-01 21:11:00,95.0,47.7,29.23,South,186,5.4,6.9,20,-99.99,,,0.00,0,rob ver 1A,2013-08-02 04:11:00,
2013-08-01 21:16:00,94.6,47.4,29.23,South,191,5.6,7.4,19,-99.99,,,0.00,0,rob ver 1A,2013-08-02 04:16:00,
2013-08-01 21:17:00,94.6,47.4,29.23,SSW,194,6.0,7.5,20,-99.99,,,0.00,0,rob ver 1A,2013-08-02 04:17:00,
2013-08-01 21:22:00,94.7,47.0,29.23,South,182,6.2,7.9,19,-99.99,,,0.00,0,rob ver 1A,2013-08-02 04:22:00,
2013-08-01 21:27:00,94.7,46.8,29.23,SSE,167,5.7,7.1,19,-99.99,,,0.00,0,rob ver 1A,2013-08-02 04:27:00,
2013-08-01 21:33:00,94.6,46.5,29.23,South,169,6.7,8.3,19,-99.99,,,0.00,0,rob ver 1A,2013-08-02 04:33:00,
2013-08-01 21:38:00,94.5,46.3,29.23,SSE,162,6.2,7.9,19,-99.99,,,0.00,0,rob ver 1A,2013-08-02 04:38:00,
2013-08-01 21:44:00,94.3,46.2,29.26,SSE,162,6.0,7.4,19,-99.99,,,0.00,0,rob ver 1A,2013-08-02 04:44:00,
2013-08-01 21:49:00,94.0,46.2,29.26,SSE,164,5.4,6.3,19,-99.99,,,0.00,0,rob ver 1A,2013-08-02 04:49:00,
2013-08-01 21:54:00,93.8,45.5,29.26,SSE,168,5.7,6.6,19,-99.99,,,0.00,0,rob ver 1A,2013-08-02 04:54:00,
2013-08-01 22:00:00,93.8,43.1,29.23,South,178,6.7,7.9,17,-99.99,,,0.00,0,rob ver 1A,2013-08-02 05:00:00,
2013-08-01 22:05:00,93.7,39.5,29.23,South,180,7.0,8.5,15,-99.99,,,0.00,0,rob ver 1A,2013-08-02 05:05:00,
2013-08-01 22:10:00,93.7,38.6,29.23,South,178,5.9,6.8,14,-99.99,,,0.00,0,rob ver 1A,2013-08-02 05:10:00,
2013-08-01 22:15:00,93.7,35.2,29.26,South,177,7.6,9.6,12,-99.99,,,0.00,0,rob ver 1A,2013-08-02 05:15:00,
2013-08-01 22:21:00,93.8,32.9,29.26,South,177,7.6,9.2,11,-99.99,,,0.00,0,rob ver 1A,2013-08-02 05:21:00,
2013-08-01 22:26:00,94.0,31.9,29.26,South,175,7.3,9.3,11,-99.99,,,0.00,0,rob ver 1A,2013-08-02 05:26:00,
2013-08-01 22:31:00,93.8,31.0,29.23,South,185,7.6,9.2,10,-99.99,,,0.00,0,rob ver 1A,2013-08-02 05:31:00,
2013-08-01 22:37:00,93.6,30.7,29.23,South,185,5.7,7.2,10,-99.99,,,0.00,0,rob ver 1A,2013-08-02 05:37:00,
2013-08-01 22:42:00,93.1,30.1,29.23,South,182,6.1,7.5,10,-99.99,,,0.00,0,rob ver 1A,2013-08-02 05:42:00,
2013-08-01 22:47:00,92.8,29.5,29.23,South,181,5.5,6.2,10,-99.99,,,0.00,0,rob ver 1A,2013-08-02 05:47:00,
2013-08-01 22:52:00,92.6,28.5,29.23,South,181,5.3,6.8,10,-99.99,,,0.00,0,rob ver 1A,2013-08-02 05:52:00,
2013-08-01 22:58:00,92.5,26.9,29.23,South,189,6.8,8.7,9,-99.99,,,0.00,0,rob ver 1A,2013-08-02 05:58:00,
2013-08-01 23:03:00,92.9,26.7,29.26,SSW,198,6.3,8.2,9,-99.99,,,0.00,0,rob ver 1A,2013-08-02 06:03:00,
2013-08-01 23:08:00,92.4,26.9,29.23,SSW,195,4.8,6.7,9,-99.99,,,0.00,0,rob ver 1A,2013-08-02 06:08:00,
2013-08-01 23:14:00,92.5,27.4,29.23,South,188,5.5,7.0,9,-99.99,,,0.00,0,rob ver 1A,2013-08-02 06:14:00,
2013-08-01 23:19:00,92.2,27.6,29.23,South,185,5.9,7.1,9,-99.99,,,0.00,0,rob ver 1A,2013-08-02 06:19:00,
2013-08-01 23:24:00,91.8,27.8,29.23,South,174,5.5,6.4,10,-99.99,,,0.00,0,rob ver 1A,2013-08-02 06:24:00,
2013-08-01 23:30:00,91.2,27.1,29.26,East,80,3.9,5.2,9,-99.99,,,0.00,0,rob ver 1A,2013-08-02 06:30:00,
2013-08-01 23:35:00,92.3,27.3,29.26,SSE,158,4.5,7.1,9,-99.99,,,0.00,0,rob ver 1A,2013-08-02 06:35:00,
2013-08-01 23:40:00,92.2,26.7,29.26,East,91,3.8,5.3,9,-99.99,,,0.00,0,rob ver 1A,2013-08-02 06:40:00,
2013-08-01 23:46:00,91.8,27.0,29.26,East,87,3.1,4.2,9,-99.99,,,0.00,0,rob ver 1A,2013-08-02 06:46:00,
2013-08-01 23:51:00,91.7,27.1,29.26,East,99,2.1,2.6,9,-99.99,,,0.00,0,rob ver 1A,2013-08-02 06:51:00,
2013-08-01 23:57:00,92.0,27.0,29.26,NE,53,2.1,2.6,9,-99.99,,,0.00,0,rob ver 1A,2013-08-02 06:57:00,